CAPE
0 4 9 7 1 0 0 0 0 0 0 0 0 0 8 0 0 0 0 0 30 12 0 0 21 78 1 0 36 32 25 0 56
0 0 1 0 0 0 0 0 0 0 0 0 6 4 0 0 0 2 1 21 124 100 119 152 152 177 193 85 87 124 168 171 67
0 1 1 2 3 3 3 1 0 0 0 4 0 0 0 0 0 0 0 132 64 31 106 58 55 41 42 30 26 40 122 179 240
0 0 2 6 8 22 21 12 16 20 0 0 0 0 0 0 0 0 0 93 13 102 30 7 5 7 6 5 4 8 12 14 37
26 31 42 27 51 78 83 57 56 0 0 0 0 0 0 0 0 0 20 9 85 19 3 0 7 5 6 6 7 7 7 8 6
7 0 63 170 134 134 82 60 31 0 0 0 0 0 0 0 0 0 0 4 34 6 0 3 6 4 2 0 0 3 4 6 5
40 3 58 314 332 233 73 23 0 0 0 0 0 0 0 0 0 0 0 3 25 6 1 0 5 5 0 0 0 0 0 0 0
18 0 29 79 108 6 2 0 0 0 0 0 0 0 0 0 0 0 0 24 11 7 0 0 0 0 0 0 0 0 0 0 0
5 0 4 0 0 0 0 0 0 0 0 0 0 0 0 0 0 0 0 30 7 1 0 0 0 0 0 0 0 0 0 0 0
0 1 0 0 0 0 0 0 0 0 0 0 0 0 0 0 0 0 0 0 0 0 0 0 0 0 0 0 0 0 0 0 0
0 0 0 0 0 0 0 0 0 0 0 0 0 0 0 0 0 0 0 0 0 0 0 0 0 0 0 0 0 0 0 0 0
0 0 0 0 0 0 0 0 0 0 0 0 0 0 0 0 0 0 0 0 0 0 0 0 0 0 0 0 0 0 0 0 0
0 0 0 0 0 0 0 0 0 0 0 0 0 0 0 0 0 0 0 0 0 0 0 0 0 0 0 0 0 0 0 0 0
0 0 0 0 0 0 0 0 0 0 0 0 0 0 0 0 0 0 0 0 0 0 0 0 0 0 0 0 0 0 0 0 0
0 0 0 0 0 0 0 0 0 0 0 0 0 0 0 0 0 0 0 0 0 0 0 0 0 0 0 0 0 0 0 0 0
0 0 0 0 0 0 0 0 0 0 0 0 0 0 0 0 0 0 0 0 0 0 0 0 0 0 0 0 0 0 0 0 0
0 0 0 0 0 0 0 0 0 0 0 0 0 0 0 0 0 0 0 0 0 0 0 0 0 0 0 0 0 0 0 0 0
0 0 0 0 0 0 0 0 0 0 0 0 0 0 0 0 0 0 0 0 0 0 0 0 0 0 0 0 0 0 0 0 0
0 0 0 0 0 0 0 0 0 0 0 0 0 0 0 0 0 0 0 0 0 0 0 0 0 0 0 0 0 0 0 0 0
0 0 0 0 0 0 0 0 0 0 0 0 0 0 0 0 0 0 0 0 0 0 0 0 0 0 0 0 0 0 0 0 0
CIN
-0 -0 -0 -0 -0 -0 -0 -0 -0 -0 -0 -0 -0 -0 -17 -0 -0 -0 -0 -0 -1 -1 -0 -0 -59 -108 -0 -0 -127 -145 -180 -0 -139
-0 -0 -0 -0 -0 -0 -0 -0 -0 -0 -0 -0 -3 -10 -0 -0 -0 -36 -16 -21 -80 -77 -76 -58 -50 -44 -37 -107 -105 -74 -67 -58 -136
-0 -0 -0 -0 -0 -0 -0 -0 -0 -0 -0 -1 -0 -0 -0 -0 -0 -0 -0 -71 -144 -0 -91 -111 -51 -34 -52 -63 -121 -146 -74 -55 -34
-0 -0 -0 -0 -8 -141 -112 -81 -78 -51 -0 -0 -0 -0 -0 -0 -0 -0 -8 -97 -1 -111 -4 -0 -0 -1 -0 -0 -0 -0 -0 -301 -212
-229 -204 -172 -182 -130 -112 -97 -115 -107 -0 -0 -0 -0 -0 -0 -0 -0 -0 -10 -3 -133 -0 -0 -0 -0 -0 -0 -0 -0 -0 -0 -0 -0
-278 -0 -169 -98 -98 -81 -103 -125 -120 -0 -0 -0 -0 -0 -0 -0 -0 -0 -0 -0 -0 -0 -0 -0 -0 -0 -0 -0 -0 -0 -0 -0 -0
-277 -294 -201 -77 -68 -77 -114 -147 -0 -0 -0 -0 -0 -0 -0 -0 -0 -0 -0 -0 -0 -0 -0 -0 -0 -0 -0 -0 -0 -0 -0 -0 -0
-349 -0 -277 -198 -166 -26 -9 -0 -0 -0 -0 -0 -0 -0 -0 -0 -0 -0 -0 -0 -0 -0 -0 -0 -0 -0 -0 -0 -0 -0 -0 -0 -0
-434 -0 -378 -0 -0 -0 -0 -0 -0 -0 -0 -0 -0 -0 -0 -0 -0 -0 -0 -0 -0 -0 -0 -0 -0 -0 -0 -0 -0 -0 -0 -0 -0
-0 -209 -0 -0 -0 -0 -0 -0 -0 -0 -0 -0 -0 -0 -0 -0 -0 -0 -0 -0 -0 -0 -0 -0 -0 -0 -0 -0 -0 -0 -0 -0 -0
-0 -0 -0 -0 -0 -0 -0 -0 -0 -0 -0 -0 -0 -0 -0 -0 -0 -0 -0 -0 -0 -0 -0 -0 -0 -0 -0 -0 -0 -0 -0 -0 -0
-0 -0 -0 -0 -0 -0 -0 -0 -0 -0 -0 -0 -0 -0 -0 -0 -0 -0 -0 -0 -0 -0 -0 -0 -0 -0 -0 -0 -0 -0 -0 -0 -0
-0 -0 -0 -0 -0 -0 -0 -0 -0 -0 -0 -0 -0 -0 -0 -0 -0 -0 -0 -0 -0 -0 -0 -0 -0 -0 -0 -0 -0 -0 -0 -0 -0
-0 -0 -0 -0 -0 -0 -0 -0 -0 -0 -0 -0 -0 -0 -0 -0 -0 -0 -0 -0 -0 -0 -0 -0 -0 -0 -0 -0 -0 -0 -0 -0 -0
-0 -0 -0 -0 -0 -0 -0 -0 -0 -0 -0 -0 -0 -0 -0 -0 -0 -0 -0 -0 -0 -0 -0 -0 -0 -0 -0 -0 -0 -0 -0 -0 -0
-0 -0 -0 -0 -0 -0 -0 -0 -0 -0 -0 -0 -0 -0 -0 -0 -0 -0 -0 -0 -0 -0 -0 -0 -0 -0 -0 -0 -0 -0 -0 -0 -0
-0 -0 -0 -0 -0 -0 -0 -0 -0 -0 -0 -0 -0 -0 -0 -0 -0 -0 -0 -0 -0 -0 -0 -0 -0 -0 -0 -0 -0 -0 -0 -0 -0
-0 -0 -0 -0 -0 -0 -0 -0 -0 -0 -0 -0 -0 -0 -0 -0 -0 -0 -0 -0 -0 -0 -0 -0 -0 -0 -0 -0 -0 -0 -0 -0 -0
-0 -0 -0 -0 -0 -0 -0 -0 -0 -0 -0 -0 -0 -0 -0 -0 -0 -0 -0 -0 -0 -0 -0 -0 -0 -0 -0 -0 -0 -0 -0 -0 -0
-0 -0 -0 -0 -0 -0 -0 -0 -0 -0 -0 -0 -0 -0 -0 -0 -0 -0 -0 -0 -0 -0 -0 -0 -0 -0 -0 -0 -0 -0 -0 -0 -0
Wind_Speed
10 10 10 9 8 8 8 8 7 7 6 6 6 6 7 5 1 3 3 2 1 3 5 1 2 5 3 1 2 3 5 5 3
12 11 11 10 10 9 8 8 7 6 6 6 6 6 6 4 4 4 1 3 12 12 12 13 10 13 16 5 8 7 6 4 5
12 12 11 10 10 9 9 8 7 6 5 6 7 6 7 5 5 4 2 7 11 10 10 12 14 16 16 15 16 17 16 15 18
13 12 11 10 10 9 8 7 6 5 5 6 5 6 9 6 4 3 2 9 9 12 12 12 12 15 13 12 12 14 14 15 16
11 10 9 10 9 8 7 6 5 6 6 7 8 11 10 5 4 3 2 8 11 12 11 10 11 10 11 12 11 12 11 11 12
7 7 8 8 9 8 6 6 6 8 8 10 9 9 4 4 3 2 3 8 11 11 10 9 9 9 10 11 11 11 11 11 11
6 6 9 9 8 7 7 7 7 6 3 4 7 3 4 4 3 2 6 7 10 10 9 9 10 9 10 10 10 10 9 9 10
3 3 3 3 5 2 3 4 3 5 3 4 4 5 4 2 2 3 3 8 9 8 8 9 9 9 9 9 9 9 9 9 9
4 3 4 4 3 3 3 2 4 5 5 5 5 5 4 2 1 3 7 9 8 9 9 8 8 9 8 8 8 8 8 9 9
4 3 3 3 3 3 3 4 4 4 5 4 5 5 5 4 2 1 7 9 9 8 8 8 7 6 7 7 8 8 8 9 9
5 4 4 3 4 3 4 4 4 4 4 4 4 4 4 4 3 2 3 9 8 8 7 6 5 5 6 6 6 7 7 8 8
7 5 5 4 4 5 4 4 3 4 3 4 3 4 4 4 4 3 2 4 6 7 6 5 5 4 5 6 7 7 6 7 7
7 6 4 4 4 4 4 4 3 3 2 2 1 2 3 4 4 3 3 2 2 4 5 4 3 5 6 7 7 8 6 6 7
7 6 5 6 5 4 5 2 3 3 2 3 2 1 2 3 3 4 3 3 3 1 2 3 3 3 6 7 7 8 8 8 7
9 5 6 7 5 5 3 3 2 2 3 3 3 1 1 2 3 4 2 2 3 2 2 2 3 5 6 6 8 8 11 9 7
10 7 9 8 9 9 7 4 4 1 2 4 2 1 1 2 2 3 2 2 3 2 2 1 1 3 8 8 8 10 12 11 10
10 10 10 12 7 7 7 6 4 2 3 4 2 1 2 1 1 1 3 3 3 3 3 2 3 3 3 5 9 12 13 12 12
13 12 11 11 10 10 11 7 8 5 1 2 4 2 4 1 1 2 1 3 2 2 2 2 3 3 3 5 7 10 11 13 14
11 10 10 11 8 10 8 6 4 6 5 2 1 3 3 4 1 1 1 1 3 2 1 1 2 3 3 5 7 9 10 12 15
10 11 10 10 7 8 10 8 7 4 5 4 3 2 2 3 3 2 2 2 2 2 3 0 2 3 4 3 6 12 14 16 18
Wind_Direction
135 139 132 125 131 126 119 117 114 113 107 100 84 69 45 34 69 127 232 275 109 50 52 134 8 313 254 43 130 271 292 289 259
136 139 143 146 143 139 136 132 128 123 113 97 77 61 56 63 96 119 129 239 66 67 57 60 46 47 48 93 31 9 344 325 285
145 145 147 149 148 148 145 142 135 126 104 82 81 78 77 88 84 67 45 79 66 55 70 63 59 54 54 53 46 46 42 46 44
156 156 158 158 154 150 148 146 138 118 91 87 97 112 111 94 85 72 52 75 78 84 70 64 63 56 51 51 51 50 45 41 43
163 164 169 167 161 158 158 156 142 103 79 77 84 104 99 88 69 53 87 84 88 76 74 74 76 66 56 54 51 48 46 46 43
166 167 181 171 170 166 162 153 126 97 68 85 94 86 80 72 55 20 76 96 90 77 72 70 73 69 61 55 54 52 50 48 43
170 176 184 179 176 170 165 151 124 100 81 80 77 86 85 73 51 8 67 115 101 81 72 72 71 69 62 53 50 49 47 45 41
170 172 179 178 171 155 125 108 101 107 110 94 93 104 89 74 43 354 40 120 104 87 80 75 73 66 59 50 44 41 36 34 31
171 173 177 173 159 161 148 135 119 104 100 104 100 104 105 95 56 7 56 113 110 104 89 81 76 67 57 47 39 36 33 28 21
167 178 177 173 159 166 162 142 126 108 100 89 105 111 117 114 98 44 85 103 113 109 101 86 71 58 48 42 35 27 23 21 15
180 174 193 176 182 158 153 155 138 117 114 103 107 118 127 127 120 102 89 111 120 117 105 88 71 59 45 44 33 26 27 18 10
183 182 183 188 176 147 129 116 110 107 93 109 121 124 139 144 139 123 96 98 111 123 111 86 73 53 34 27 15 17 18 8 3
185 179 187 169 156 146 144 144 110 109 125 130 132 122 134 157 160 145 128 121 96 120 115 86 71 61 23 5 2 360 352 343 344
177 173 175 155 151 157 156 131 131 143 122 136 94 88 118 170 154 164 161 168 133 132 148 116 87 44 7 4 360 346 340 328 323
173 168 159 157 152 146 152 138 79 133 145 106 93 44 65 138 163 185 167 175 154 152 127 44 345 352 345 347 347 339 335 324 314
176 178 163 166 171 175 160 135 134 103 146 106 42 31 9 129 155 165 179 203 183 158 132 123 353 333 332 329 328 331 330 319 309
175 174 183 174 154 154 167 161 133 120 173 139 102 174 316 349 48 144 174 177 160 140 122 55 8 346 321 308 311 323 316 314 306
186 182 179 178 172 179 181 168 150 145 167 219 144 115 219 140 359 27 106 138 124 123 88 56 36 1 349 342 325 319 310 304 301
187 191 184 181 188 175 187 173 159 132 157 139 140 68 141 162 215 359 244 89 134 130 353 21 16 37 30 19 356 352 332 314 311
176 177 183 187 185 169 175 179 171 155 142 145 153 119 53 77 121 202 285 333 233 238 192 216 106 81 40 3 349 344 330 320 312